TITAN 34B R/B

基本信息
目录编号:
12446
目录名称:
TITAN 34B R/B
国际标识:
1981-038B
轨道中心:
EARTH
物体状态:
在轨
发射日期:
1981-04-24 UTC
国别:
美国 (US)
轨道信息
数据来源: 国际轨道数据
星历时间: 2026-07-11T15:34:44+0800
半长轴: 15069.932km
偏心率: 0.5547834
轨道倾角: 63.209°
近地点辐角: 291.035°
升交点赤经: 263.548°
平近点角: 19.882°
近地点: 331.246km
远地点: 17052.344km
周期: 306.850分钟
每日圈数: 4.692841
详细信息
发射场:
AFWTR
轨道高度:
LEO
数据来源:
AOE Integration Group
参考系:
TEME
时间系统:
UTC
历元类型:
SGP4
2D轨道图
3D轨道图
轨道高度分析图
轨道倾角分析图
轨道综合分析图
查看轨道综合分析图